Location: Auckland
(36.8670°S, 174.7670°E)
Time: 05:19:36
(UTC+12:00)

NOSS 2-1 (E) - Pass Details

Date: 02 May 2019
Orbit: 471 x 1733 km, 63.3° (Epoch: 14 May)

Event Time Altitude Azimuth Distance (km) Brightness Sun altitude
Rises 21:44:37 0° 210° (SSW) 4,501 8.4 -49.8°
Reaches altitude 10° 21:48:11 10° 202° (SSW) 3,320 7.5 -50.5°
Enters shadow 21:49:06 13° 199° (SSW) 3,023 7.3 -50.6°
